FW1784 Weather Reports


Display with metric or nautical units.
time (UTC)temp
F
wind
direction
speed
MPH
gust
MPH
rain 1hr
in
rain 24hr
in
rain mn
in
humidity
%
barometer
mb
20260906190002 73 15 3.0 10.0 0.00 0.00 0.00 58 1014.7
20260906184503 73 38 3.0 6.0 0.00 0.00 0.00 58 1014.7
20260906183003 72 121 1.0 9.0 0.00 0.00 0.00 62 1014.8
20260906181603 72 28 4.0 9.0 0.00 0.00 0.00 60 1014.8
20260906180130 71 13 2.0 9.0 0.00 0.00 0.00 64 1014.8
20260906174501 72 32 3.0 12.0 0.00 0.00 0.00 63 1014.9
20260906173103 70 52 2.0 5.0 0.00 0.00 0.00 66 1015.0
20260906171502 72 35 2.0 6.0 0.00 0.00 0.00 65 1015.0
20260906170002 71 82 3.0 9.0 0.00 0.00 0.00 66 1015.0
20260906164502 71 73 3.0 9.0 0.00 0.00 0.00 68 1015.1
20260906163002 71 9 2.0 10.0 0.00 0.00 0.00 69 1015.2
20260906161602 71 65 2.0 8.0 0.00 0.00 0.00 68 1015.4
20260906160002 69 44 3.0 9.0 0.00 0.00 0.00 71 1015.4
20260906154606 69 30 2.0 5.0 0.00 0.00 0.00 75 1015.5
20260906153117 67 25 0.0 3.0 0.00 0.00 0.00 82 1015.4
20260906151606 66 355 0.0 2.0 0.00 0.00 0.00 84 1015.4
20260906150007 67 355 0.0 4.0 0.00 0.00 0.00 85 1015.5
20260906144606 67 47 1.0 4.0 0.00 0.00 0.00 84 1015.3
20260906143103 66 63 0.0 2.0 0.00 0.00 0.00 85 1015.2
20260906141503 66 32 0.0 4.0 0.00 0.00 0.00 86 1015.1
20260906140002 64 21 1.0 3.0 0.00 0.00 0.00 91 1014.9
20260906134617 63 27 0.0 3.0 0.00 0.00 0.00 92 1015.1
20260906133109 63 51 0.0 3.0 0.00 0.00 0.00 93 1015.0
20260906131603 62 53 0.0 0.0 0.00 0.00 0.00 95 1015.0
20260906130004 61 53 0.0 0.0 0.00 0.00 0.00 96 1014.9
20260906124504 61 53 0.0 0.0 0.00 0.00 0.00 97 1014.8
20260906123006 60 52 0.0 0.0 0.00 0.00 0.00 97 1014.8
20260906121607 59 52 0.0 0.0 0.00 0.00 0.00 97 1014.7
20260906114503 59 53 0.0 0.0 0.00 0.00 0.00 97 1014.6
20260906113022 58 53 0.0 0.0 0.00 0.00 0.00 97 1014.3
20260906111502 58 53 0.0 0.0 0.00 0.00 0.00 97 1014.1
20260906110105 58 53 0.0 0.0 0.00 0.00 0.00 97 1013.8
20260906104503 58 53 0.0 0.0 0.00 0.00 0.00 96 1013.6
20260906101505 58 53 0.0 0.0 0.00 0.00 0.00 96 1013.4
20260906100106 59 53 0.0 0.0 0.00 0.00 0.00 96 1013.2
20260906094504 59 53 0.0 0.0 0.00 0.00 0.00 96 1013.0
20260906093105 59 53 0.0 0.0 0.00 0.00 0.00 96 1012.9
20260906091502 60 53 0.0 0.0 0.00 0.00 0.00 96 1012.9
20260906090117 60 53 0.0 0.0 0.00 0.00 0.00 96 1012.6
20260906084503 60 53 0.0 0.0 0.00 0.00 0.00 96 1012.6
20260906083004 60 53 0.0 0.0 0.00 0.00 0.00 95 1012.6
20260906081606 60 53 0.0 0.0 0.00 0.00 0.00 95 1012.5
20260906080001 60 53 0.0 0.0 0.00 0.00 0.00 94 1012.4
20260906074502 60 53 0.0 0.0 0.00 0.00 0.00 93 1012.7
20260906073002 61 53 0.0 0.0 0.00 0.00 0.00 93 1012.4
20260906071502 61 53 0.0 0.0 0.00 0.00 0.00 93 1012.3
20260906070002 62 53 0.0 0.0 0.00 0.00 0.00 92 1012.2
20260906064610 62 53 0.0 2.0 0.00 0.00 0.00 92 1012.3
20260906063102 63 43 0.0 0.0 0.00 0.00 0.00 93 1012.2
20260906061503 62 43 0.0 0.0 0.00 0.00 0.00 93 1012.2
20260906054601 62 43 0.0 0.0 0.00 0.00 0.00 93 1012.5
20260906053102 62 43 0.0 0.0 0.00 0.00 0.00 93 1012.7
20260906051505 62 43 0.0 0.0 0.00 0.00 0.00 93 1012.7
20260906050109 62 43 0.0 0.0 0.00 0.00 0.00 92 1012.8
20260906044603 62 43 0.0 1.0 0.00 0.00 0.00 92 1012.9
20260906043104 62 43 0.0 0.0 0.00 0.00 0.00 91 1012.7
20260906041503 62 43 0.0 0.0 0.00 0.00 0.00 92 1012.7
20260906040006 62 43 0.0 0.0 0.00 0.00 0.00 91 1012.6
20260906034639 63 43 0.0 0.0 0.00 0.00 0.00 90 1012.6
20260906033002 63 43 0.0 0.0 0.00 0.00 0.00 90 1012.6
20260906031604 63 43 0.0 1.0 0.00 0.00 0.00 89 1012.4
20260906030002 64 43 0.0 0.0 0.00 0.00 0.00 90 1012.3
20260906024502 64 43 0.0 0.0 0.00 0.00 0.00 88 1012.4
20260906023001 64 43 0.0 0.0 0.00 0.00 0.00 90 1012.2
20260906021503 64 43 0.0 0.0 0.00 0.00 0.00 90 1012.4
20260906020002 64 43 0.0 0.0 0.00 0.00 0.00 89 1012.2
20260906014602 64 43 0.0 0.0 0.00 0.00 0.00 87 1012.1
20260906013003 64 43 0.0 0.0 0.00 0.00 0.00 85 1012.0
20260906011603 65 43 0.0 0.0 0.00 0.00 0.00 84 1012.1
20260906010003 65 43 0.0 1.0 0.00 0.00 0.00 82 1011.9
20260906004604 65 43 0.0 1.0 0.00 0.00 0.00 85 1011.8
20260906003103 66 49 0.0 0.0 0.00 0.00 0.00 84 1011.7
20260906001603 66 49 0.0 1.0 0.00 0.00 0.00 81 1011.5
20260906000003 67 49 0.0 0.0 0.00 0.00 0.00 84 1011.5
20260905234621 67 49 0.0 0.0 0.00 0.00 0.00 80 1011.5
20260905233004 68 52 0.0 0.0 0.00 0.00 0.00 82 1011.3
20260905231607 68 51 0.0 3.0 0.00 0.00 0.00 83 1011.3
20260905230002 68 302 0.0 0.0 0.00 0.00 0.00 88 1011.2
20260905224621 69 302 0.0 1.0 0.00 0.00 0.00 87 1011.0
20260905223103 69 302 0.0 1.0 0.00 0.00 0.00 86 1011.0
20260905221505 69 302 0.0 0.0 0.00 0.00 0.00 87 1010.9
20260905220115 69 302 0.0 2.0 0.00 0.00 0.00 87 1010.9
20260905214605 69 302 0.0 0.0 0.00 0.00 0.00 87 1010.9
20260905213102 69 302 0.0 0.0 0.00 0.00 0.00 88 1010.8
20260905211602 69 302 0.0 0.0 0.00 0.00 0.00 86 1010.5
20260905210002 70 302 0.0 2.0 0.00 0.00 0.00 81 1010.3
20260905204601 71 360 0.0 3.0 0.00 0.00 0.00 73 1010.5
20260905203114 74 59 1.0 4.0 0.00 0.00 0.00 69 1010.2
20260905201521 74 237 0.0 2.0 0.00 0.00 0.00 66 1010.0
20260905200002 72 303 1.0 2.0 0.00 0.00 0.00 73 1010.1
20260905194603 73 302 0.0 0.0 0.00 0.00 0.00 74 1010.0
20260905193103 74 302 0.0 2.0 0.00 0.00 0.00 69 1010.1
20260905191502 74 346 2.0 4.0 0.00 0.00 0.00 68 1010.1
20260905190103 73 132 0.0 3.0 0.00 0.00 0.00 70 1010.1